"Pseudo-MPEC" for P20Uhmt

Created 2019 Nov 13 9:07:18 UT using Find_Orb

Click here for an explanation of pseudo-MPECs

 
 Astrometry: 
     P20Uhmt  C2019 11 08@17Wm_XP@FCZ@\dnsC)oQhNf=Astrometry,%MFjX]7qUIGuoDViF52
     P20Uhmt  C2019 11 08t^S=AHncwZ]`_1aO)sg@jBj7_\NOHgpe.r3qoGRSa7gGuTBev2#nF52
     P20Uhmt  C2019 11 08K9BUDA%cOxP!mwS_jra1@]eredacted;NYdyrclickaT(+u-I%+yF52
     P20Uhmt  C2019 11 08Sw3S\#Lw5F4Tb7JjJ5CCvQK[M2*,*fq[y$q*nk*]FNJ6x_4uhereF52
     P20Uhmt  C2019 11 085eFql3UxQ9dtcZE@eneoQep%6for,WO@Se`S6RfkQq_osY3TYSsMF52
     P20Uhmt  C2019 11 08rB$^8]NE:#?explanationGBY!X2g$c_cX2vk@Ux9(K\`ctw7slnF52
     P20Uhmt  C2019 11 09.36813305 54 44.97 -05 39 06.5    ~B99b 21.5 GVNEOCPH01
     P20Uhmt  C2019 11 09.37239205 54 44.54 -05 39 09.6    ~B99b 21.6 GVNEOCPH01
     P20Uhmt  C2019 11 09.38682305 54 43.10 -05 39 20.2    ~B99b 21.2 GVNEOCPH01
     P20Uhmt  C2019 11 09.39085505 54 42.69 -05 39 23.1    ~B99b 21.3 GVNEOCPH01

Station data:
(F52) Pan-STARRS 2, Haleakala  (N20.707384 W156.255910)  US/Hawaii. 1.8-m
   Ritchey-Chrétien + CCD.
(H01) Magdalena Ridge Observatory, Socorro  (N33.984833 W107.189333)  US/New
   Mexico.  Observers W. H. Ryan, E. V. Ryan. Measurer W. H. Ryan. 2.4-m
   f/8.9 reflector + CCD.

Orbital elements:  P20Uhmt
   Perihelion 2019 Sep 27.293880 +/- 8.41 TT =  7:03:11 (JD 2458753.793880)
Epoch 2019 Nov  9.0 TT = JDT 2458796.5   Earth MOID: 0.0065   AutoNEOCP
M  16.36649202 +/- 13               (J2000 ecliptic)
n   0.38323528 +/- 0.191            Peri.  164.19170 +/- 3.6
a   1.87712152 +/- 0.625            Node   199.64773 +/- 9
e   0.4706693 +/- 0.184             Incl.    8.22090 +/- 1.8
P   2.57/939.35d           H 23.6   G  0.15   U 11.6  
q 0.99361794 +/- 0.0116    Q 2.76062510 +/- 1.02
From 10 observations 2019 Nov. 8-9 (19.3 hr); mean residual 0".10
Residuals in arcseconds: 
191108 F52  .17+  .08-    191108 F52  .01+  .06-    191109 H01  .03+  .04-    
191108 F52  .27-  .20+    191108 F52  .03-  .05-    191109 H01  .05-  .00     
191108 F52  .08-  .05-    191109 H01  .05+  .01+    
191108 F52  .21+  .03+    191109 H01  .02-  .03+    

Ephemerides (geocentric):
Date (UTC) HH   RA              Dec         delta   r     elong  mag " sig PA
---- -- -- --  -------------   -----------  ------ ------ -----  --- ---- ---
2019 11 13 09  05 49 08.725   -06 17 43.79  .19244 1.1324 134.3 21.9  110  67
2019 11 13 10  05 49 05.197   -06 18 02.65  .19262 1.1326 134.3 21.9  112  67
2019 11 13 11  05 49 01.669   -06 18 21.39  .19281 1.1329 134.4 21.9  114  67
2019 11 13 12  05 48 58.140   -06 18 40.03  .19300 1.1331 134.4 21.9  116  67
2019 11 13 13  05 48 54.611   -06 18 58.55  .19318 1.1333 134.5 21.9  118  68
2019 11 13 14  05 48 51.081   -06 19 16.97  .19337 1.1335 134.5 21.9  120  68
2019 11 13 15  05 48 47.550   -06 19 35.28  .19356 1.1337 134.5 21.9  121  68
2019 11 13 16  05 48 44.018   -06 19 53.48  .19375 1.1340 134.6 21.9  123  68
2019 11 13 17  05 48 40.486   -06 20 11.58  .19393 1.1342 134.6 21.9  125  68
2019 11 13 18  05 48 36.953   -06 20 29.56  .19412 1.1344 134.7 21.9  128  68
2019 11 13 19  05 48 33.419   -06 20 47.44  .19431 1.1346 134.7 21.9  130  68
2019 11 13 20  05 48 29.885   -06 21 05.21  .19449 1.1349 134.7 21.9  132  68
2019 11 13 21  05 48 26.350   -06 21 22.88  .19468 1.1351 134.8 21.9  134  68
2019 11 13 22  05 48 22.815   -06 21 40.43  .19487 1.1353 134.8 21.9  136  68
2019 11 13 23  05 48 19.278   -06 21 57.88  .19506 1.1355 134.9 21.9  138  68
2019 11 14 00  05 48 15.741   -06 22 15.22  .19524 1.1357 134.9 21.9  140  68
2019 11 14 01  05 48 12.204   -06 22 32.46  .19543 1.1360 134.9 21.9  142  68
2019 11 14 02  05 48 08.666   -06 22 49.59  .19562 1.1362 135.0 21.9  144  68
2019 11 14 03  05 48 05.127   -06 23 06.61  .19581 1.1364 135.0 21.9  146  68
2019 11 14 04  05 48 01.587   -06 23 23.53  .19599 1.1366 135.0 21.9  148  68
2019 11 14 05  05 47 58.047   -06 23 40.34  .19618 1.1368 135.1 21.9  151  68
2019 11 14 06  05 47 54.506   -06 23 57.05  .19637 1.1371 135.1 21.9  153  68
2019 11 14 07  05 47 50.965   -06 24 13.64  .19656 1.1373 135.2 21.9  155  68
2019 11 14 08  05 47 47.423   -06 24 30.14  .19675 1.1375 135.2 21.9  157  68
2019 11 14 09  05 47 43.880   -06 24 46.53  .19693 1.1377 135.2 21.9  159  68
2019 11 14 10  05 47 40.337   -06 25 02.81  .19712 1.1380 135.3 21.9  162  68
2019 11 14 11  05 47 36.793   -06 25 18.98  .19731 1.1382 135.3 21.9  164  68
2019 11 14 12  05 47 33.248   -06 25 35.06  .19750 1.1384 135.4 21.9  166  68
2019 11 14 13  05 47 29.703   -06 25 51.02  .19769 1.1386 135.4 21.9  168  68
2019 11 14 14  05 47 26.157   -06 26 06.89  .19788 1.1388 135.4 21.9  171  68
2019 11 14 15  05 47 22.611   -06 26 22.65  .19807 1.1391 135.5 21.9  173  68
2019 11 14 16  05 47 19.064   -06 26 38.30  .19825 1.1393 135.5 21.9  175  68
2019 11 14 17  05 47 15.517   -06 26 53.85  .19844 1.1395 135.6 21.9  177  68
2019 11 14 18  05 47 11.969   -06 27 09.29  .19863 1.1397 135.6 21.9  180  68
2019 11 14 19  05 47 08.420   -06 27 24.63  .19882 1.1400 135.6 21.9  182  68
2019 11 14 20  05 47 04.871   -06 27 39.87  .19901 1.1402 135.7 21.9  184  68
2019 11 14 21  05 47 01.321   -06 27 55.01  .19920 1.1404 135.7 21.9  187  68
2019 11 14 22  05 46 57.770   -06 28 10.04  .19939 1.1406 135.8 21.9  189  68
2019 11 14 23  05 46 54.219   -06 28 24.96  .19958 1.1409 135.8 21.9  192  68
2019 11 15 00  05 46 50.668   -06 28 39.79  .19977 1.1411 135.8 21.9  194  68
2019 11 15 01  05 46 47.116   -06 28 54.51  .19996 1.1413 135.9 21.9  196  68
2019 11 15 02  05 46 43.563   -06 29 09.12  .20015 1.1415 135.9 21.9  199  68
2019 11 15 03  05 46 40.010   -06 29 23.64  .20033 1.1418 135.9 21.9  201  68
2019 11 15 04  05 46 36.456   -06 29 38.05  .20052 1.1420 136.0 21.9  204  68
2019 11 15 05  05 46 32.902   -06 29 52.36  .20071 1.1422 136.0 21.9  206  68
2019 11 15 06  05 46 29.347   -06 30 06.56  .20090 1.1424 136.1 21.9  208  69
2019 11 15 07  05 46 25.791   -06 30 20.67  .20109 1.1427 136.1 22.0  211  69
2019 11 15 08  05 46 22.235   -06 30 34.67  .20128 1.1429 136.1 22.0  213  69